Terug naar catalogus

CUPID

ActiefWetenschapSSO
NORAD 49264·PAYLOAD·🇺🇸 United States

Gelanceerd Sep 27, 2021 vanaf Vandenberg Space Force Base

Loading…

Volgende Passages (komende 24 uur)

TLE

VersSource: Space-Track

Epoch: Sep 14, 2026, 09:41 UTC

1 49264U 21088E   26257.40356111  .00005797  00000-0  22040-3 0  9996
2 49264  97.3773 317.5819 0013359 107.5082 252.7618 15.27088155273792

Volg CUPID in realtime met AllMySat

Download on the App Store